Location: Ostrava
(49.8330°N, 18.2830°E)
Time: 15:46:23
(UTC+02:00)

Cosmos 2219 Rocket - Visible Passes

Search period start: 01 September 2014 00:00
Search period end: 11 September 2014 00:00
Orbit: 829 x 847 km, 71.0° (Epoch: 01 September)

Date Brightness Start Highest point End Pass type
(mag) Time Alt. Az. Time Alt. Az. Time Alt. Az.
03 Sep 3.7 05:22:29 10° S 05:27:33 38° ESE 05:32:40 10° NE visible
04 Sep 3.8 05:06:21 10° S 05:11:20 35° ESE 05:16:22 10° NE visible
05 Sep 3.8 04:50:13 10° SSE 04:55:07 33° ESE 05:00:04 10° NE visible
06 Sep 3.9 04:34:06 10° SSE 04:38:55 31° ESE 04:43:45 10° NE visible
07 Sep 3.9 04:18:00 10° SSE 04:22:42 29° ESE 04:27:26 10° NE visible
08 Sep 4.0 04:01:54 10° SSE 04:06:29 27° ESE 04:11:06 10° NE visible
09 Sep 4.0 03:45:49 10° SSE 03:50:17 25° ESE 03:54:46 10° NE visible
09 Sep 2.3 05:28:18 10° SW 05:33:49 62° WNW 05:39:24 10° NNE visible
10 Sep 4.1 03:30:08 12° SSE 03:34:04 24° ESE 03:38:26 10° NE visible
10 Sep 2.2 05:12:01 10° SW 05:17:33 65° WNW 05:23:09 10° NNE visible
